Find Starlink 6095

NORAD ID: 56101 Int'l Des: 2023-046 Owner: SPXS Country: US Constellation: starlink operational
LEOCIRCULAR

实时位置

正在加载3D地球...

关于 Starlink 6095

正在加载描述...

即将过境

Passes for default location (London). Set your location on the main map for personalized predictions.

高度历史

Loading altitude history...

两行轨道根数

1 56101U 23046J 26121.31649264 .00001006 00000-0 46083-4 0 9997
2 56101 43.0020 224.0393 0001734 285.3059 74.7601 15.27574001170087
Epoch: May 1, 2026 • Age: 31 hours

当前状态

高度 482.3 km
速度 7.63 km/s
星下点 17.52°N, 149.33°E
发射日期 Mar 29, 2023
运行时间 3 years
类型 internet

技术详情

分类 Payload
质量 305.00 kg
干质量 290.00 kg
总质量 305.00 kg
长度 0.20 m
直径 2.80 m
跨度 9.00 m
形状 Box + pan
制造商 SPXS
平台类型 Starlink
阶段状态 In Orbit
所有者/国家 SPXS/US

Most Searched